www.pogodaiklimat.ru

Погода и климат >> Архив погоды >> Россия >> Якутия >> Усть-Мая


ПОГОДА в Усть-Мае

АРХИВ ПОГОДЫ в Усть-Мае

Время (UTC), дата Ветер
(напр.,м/с)
 
Видим.   Явления Облачность Т
(С)
Тd
(С)
f
(%)
Тe
(С)
Тes
(С)
Комфортность P
(гПа)
Po
(гПа)
Тmin
(С)
Tmax
(С)
R
(мм)
R24
(мм)
S
(см)
06 17.05 Ю 3 50 км 3/0
[Ci fib]
+12.9 -7.4 24 +12 +19 994.6 974.7
09 17.05 ЮВ 4 50 км 10/0
[Ac trans Ci fib]
+13.8 -5.5 26 +13 +14 992.4 972.6 +14.0
12 17.05 В 3 50 км 10/0
[Ac trans Ci fib]
+11.0 -4.8 33 +10 +10 991.3 971.3
15 17.05 Ю 4
{10}
20 км слабый ливневой дождь 10/4 600 м
[Cb cap Ac trans]
+7.7 +0.7 61 +5 +5 991.1 970.9
18 17.05 ЮЗ 2
{10}
50 км {ливн. осадки} 10/8 840 м
[Cb cap Ac trans]
+4.5 +4.5 100 +2 +2 994.4 973.9
21 17.05 ЮЗ 2 50 км {ливн. осадки} 9/9 1320 м
[Cb cap]
+3.8 +2.8 93 +1 +1 996.6 976.0 +3.5 4
00 18.05 З 5 20 км слабый ливневой снег 10/10 330 м
[Cb cap]
+4.6 -0.2 71 0 0 997.9 977.3
03 18.05 З 5 20 км слабый ливневой снег 10/10 330 м
[Cb cap]
+4.6 -0.2 71 0 0 997.9 977.3
06 18.05 З 4
{12}
50 км в посл. час ливневой снег 10/10 800 м
[Cb cap]
+4.6 +1.4 80 0 0 999.5 978.9
09 18.05 СЗ 5 50 км 10/4 600 м
[Cb cap Ac trans Ci fib]
+7.7 -2.8 47 +4 +5 1000.4 980.0 +9.5 0.4
12 18.05 ЮЗ 1 50 км 4/1 600 м
[Cb cap Ac trans]
+3.7 +0.4 79 +2 +2 1002.5 981.7
15 18.05 штиль 0 50 км 10/3 600 м
[Cb cap Ac trans Cs]
+1.6 +0.3 91 0 0 1003.1 982.2
18 18.05 СЗ 3 50 км 9/3 600 м
[Cb cap Ac trans Cs]
+2.3 -1.6 75 -2 -2 1003.4 982.5
21 18.05 СЗ 4 50 км 3/0
[Ac trans]
+2.4 -9.2 42 -2 -1 1004.8 983.9 +1.3
00 19.05 СЗ 3 50 км 4/3 1000 м
[Cu hum Ci fib]
+5.6 -8.0 37 +3 +8 1004.5 983.8
03 19.05 СЗ 4
{10}
50 км 9/9 1000 м
[Cb cap]
+6.5 -7.6 36 +4 +5 1003.4 982.8
06 19.05 СЗ 5-12
{12}
50 км 8/8 600 м
[Cb cap]
+9.1 -6.7 32 +6 +7 1003.4 983.0
09 19.05 СЗ 4
{12}
50 км 6/6 600 м
[Cb cap]
+6.9 -8.8 32 +4 +5 1004.7 984.2 +9.1
12 19.05 СЗ 3 50 км 3/1 1000 м
[Sc Ci fib]
+4.0 -9.8 36 +1 +1 1006.7 985.9
15 19.05 СЗ 2 50 км 3/0
[]
+0.8 -10.0 44 -2 -2 1008.1 987.0
18 19.05 СЗ 2 50 км 3/0
[Ac trans]
-0.7 -9.8 50 -4 -4 1009.6 988.4
21 19.05 СЗ 4 50 км 3/3 1000 м
[Sc]
-0.5 -11.1 45 -5 -4 1010.5 989.2 -1.0
00 20.05 З 4 50 км 9/9 1000 м
[Sc]
+0.6 -11.2 41 -4 -3 1010.5 989.3
03 20.05 З 4-10
{10}
50 км 10/8 1000 м
[Sc Ci fib]
+4.2 -10.5 33 +1 +2 1008.7 987.9
06 20.05 СЗ 5-10
{11}
50 км 6/5 1000 м
[Cu hum Ci fib]
+5.3 -10.0 32 +2 +4 1007.3 986.6
09 20.05 СЗ 5-11
{12}
50 км 9/6 1000 м
[Cu hum Ci fib]
+4.6 -9.3 36 +1 +1 1007.4 986.5 +5.8
12 20.05 СЗ 1 50 км 3/0
[Ac trans]
+0.3 -9.1 49 -1 -1 1008.2 987.0
15 20.05 штиль 0 50 км 10/0
[Ac trans Cs]
-0.8 -5.8 69 -2 -2 1008.3 987.1
18 20.05 З 3 50 км 10/4 1000 м
[Sc As op]
-1.8 -6.3 71 -7 -7 1008.3 987.0
21 20.05 СЗ 3 50 км 8/8 750 м
[Cb cap]
-1.5 -3.8 84 -6 -6 1008.7 987.4 -2.2
00 21.05 З 3
{10}
50 км 6/6 800 м
[Cb cap]
+1.3 -7.4 52 -2 +1 1008.6 987.5
03 21.05 СЗ 4
{11}
50 км 10/10 1200 м
[Cb cap]
+1.4 -8.2 49 -3 -3 1008.7 987.6
06 21.05 СЗ 4 50 км 10/5 600 м
[Cb cap Ac trans]
+3.4 -7.9 43 -0 +1 1008.3 987.4
09 21.05 СЗ 4
{10}
50 км 8/4 1000 м
[Cb cap Ac trans]
+2.5 -7.5 48 -2 -1 1009.6 988.6 +3.9
12 21.05 СЗ 3 50 км 3/0
[Ac trans]
-0.7 -8.1 57 -5 -5 1010.7 989.5
15 21.05 З 2 50 км 3/0
[Ac trans]
-2.4 -7.6 67 -6 -6 1010.6 989.2
18 21.05 ЮЗ 1 50 км 1/0
[Ac trans]
-4.5 -7.2 81 -7 -7 1011.1 989.5
21 21.05 З 2 50 км ясно -1.1 -6.8 65 -4 -2 1011.0 989.7 -5.1
00 22.05 ЮВ 2 50 км 3/1 1000 м
[Cu hum Ci fib]
+4.2 -4.4 54 +2 +10 опасность
простуды
1010.2 989.3
03 22.05 Ю 2 50 км 1/0
[Ci fib]
+7.3 -4.8 42 +6 +19 опасность
простуды
1008.6 987.9
06 22.05 В 2 50 км ясно +9.8 -5.0 35 +9 +18 1007.2 986.8
09 22.05 Ю 1 50 км 3/0
[Ci fib]
+11.2 -5.5 31 +12 +14 1006.5 986.2 +11.2
12 22.05 В 1 50 км 3/0
[Ci fib]
+7.4 -5.6 39 +7 +7 1006.9 986.3
15 22.05 С 1 50 км 3/0
[Ci fib]
+1.0 -1.4 84 -1 -1 1006.6 985.6
18 22.05 С 1 50 км ясно -0.7 -2.7 86 -3 -3 1006.4 985.2
21 22.05 СВ 2 50 км 1/0
[Ci fib]
+3.7 -2.7 63 +1 +3 1005.4 984.5 -1.9
00 23.05 В 3 50 км ясно +12.3 -3.3 34 +11 +19 1003.5 983.3
03 23.05 СВ 3 50 км 3/1 1000 м
[Cu hum Ci fib]
+17.6 -3.3 24 +18 +27 1001.5 981.7
06 23.05 СВ 3 50 км 3/1 1000 м
[Sc diur, vesp Ci fib]
+20.6 -3.4 20 +21 +27 комфорт 1000.3 980.8
09 23.05 СВ 3 50 км 3/1 1000 м
[Cu med, cong Ci fib]
+20.1 -4.0 19 +20 +22 1000.5 980.9 +20.6
12 23.05 С 2 50 км 3/0
[Ac trans]
+14.5 -3.3 29 +14 +14 1002.0 982.0
15 23.05 С 2 50 км 4/3 1000 м
[Cb cap Ac trans]
+6.8 -2.2 53 +5 +5 1003.4 982.8
18 23.05 С 1 50 км 8/3 1000 м
[Cb cap Ac trans]
+7.6 -3.7 45 +7 +7 1004.7 984.2
21 23.05 штиль 0 50 км 5/0
[Ac trans Ci fib]
+8.4 +0.4 57 +8 +11 1006.0 985.5 +4.8
00 24.05 ЮЗ 3 50 км 1/0
[Ac trans]
+15.8 +6.4 54 +15 +23 1005.8 985.9
03 24.05 ЮЗ 5 50 км ясно +19.4 +4.5 37 +20 +27 1004.8 985.2

 

Местоположение метеостанции Усть-Мая (Якутия, Россия): широта 60.35 долгота 134.40 высота над уровнем моря 170 м.

В архиве по умолчанию представлена погода в Усть-Мае за последнюю неделю. Архивные данные за месяц целиком и за предыдущие месяцы, начиная с января 2011 года, Вы можете получить, выбрав интересующий диапазон дат из раскрывающегося списка и нажав кнопку "Ввод!".

Внимание! Время в таблицах - всемирное. Для получения местного времени необходимо прибавить поправку, которая в Усть-Мае равна 9 ч.

Смотрите также архив погоды в соседних городах и на ближайших метеорологических станциях:

Погода в Усть-Миле (Якутия, Россия) (112 км)
Погода в Усть-Юдоме (Якутия, Россия) (136 км)
Погода в Амге (Якутия, Россия) (149 км)
Погода в Охотском Перевозе (Якутия, Россия) (179 км)
Погода в Югоренке (Якутия, Россия) (189 км)
Погода в Чурапче (Якутия, Россия) (210 км)
Погода в Ытык-Кюёле (Якутия, Россия) (230 км)
Погода в Тегюльте (Якутия, Россия) (242 км)
Погода в Крест-Хальджае (Якутия, Россия) (275 км)
Погода в Учуре (Якутия, Россия) (280 км)

Пояснения к столбцам:

Ветер - указаны скорость ветра в м/с - средняя за 10 мин, порывы в срок и между сроками (в фигурных скобках) и направление, откуда дует ветер: С - северный, СВ - северо-восточный, В - восточный, ЮВ - юго-восточный, Ю - южный, ЮЗ - юго-западный, З - западный, СЗ - северо-западный.
Видимость - горизонтальная дальность видимости в метрах или километрах. При видимости от 1 до 10 км при отсутствии осадков обычно наблюдается дымка, при ухудшении видимости до 1 км и менее - туман. В сухую погоду видимость может ухудшаться дымом, пылью или мглою.
Явления - указаны атмосферные явления, наблюдавшиеся в срок или в последний час перед сроком; фигурными скобками обозначены явления, наблюдавшиеся между сроками (за 1-3 часа до срока); квадратными скобками обозначены град или гололедные отложения с указанием их диаметра в мм.
Облачность - указаны через наклонную черту общая и нижняя облачность в баллах и высота нижней границы облаков в метрах; квадратными скобками обозначены формы облаков: Ci - перистые, Cs - перисто-слоистые, Cc - перисто-кучевые, Ac - высококучевые, As - высокослоистые, Sc - слоисто-кучевые, Ns - слоисто-дождевые, Cu - кучевые, Cb - кучево-дождевые. Подробнее классификацию облаков см. в Атласе облаков (PDF).
T - Температура воздуха - температура, измеренная на высоте 2 м над землей.
Td - Температура точки росы - температура, при понижении до которой содержащийся в воздухе водяной пар достигнет насыщения.
f - Относительная влажность воздуха - влажноcть воздуха, измеренная на высоте 2 м над землей.
Te - Эффективная температура - температура, которую ощущает одетый по сезону человек в тени. Характеристика душности погоды. При расчете учитывается влияние влажности воздуха и скорости ветра на теплоощущения человека.
Tes - Эффективная температура на солнце - температура, которую ощущает человек, с поправкой на солнечный нагрев. Характеристика знойности погоды. Зависит от высоты солнца над горизонтом, облачности и скорости ветра. Ночью, в пасмурную погоду, а также при ветре 12 м/с и более поправка равна нулю.
P - Атмосферное давление - приведенное к уровню моря атмосферное давление.
Po - Атмосферное давление - измеренное на уровне метеостанции атмосферное давление.
Tmin - Минимальная температура - минимум температуры воздуха на высоте 2 м над землей.
Tmax - Максимальная температура - максимум температуры воздуха на высоте 2 м над землей.
R - Количество осадков - Количество выпавших осадков за период времени, мм. При наведении курсора мыши на число - период времени, за который выпало указанное количество осадков.
R24 - Количество осадков - Количество выпавших осадков за 24 часа, мм.
S - Снежный покров - Высота снежного покрова, см. При наведении курсора мыши на число - состояние снежного покрова и степень покрытия местности в баллах.